Location: Bovenkerk
(52.2915°N, 4.8336°E)
Time: 00:27:08
(UTC+00:00)

Mayak - Pass Details

Date: 09 April 2020
Orbit: 581 x 600 km, 97.5° (Epoch: 04 June)

Event Time Altitude Azimuth Distance (km) Brightness Sun altitude
Rises 23:35:18 0° 1° (N) 2,828 ? -29.7°
Reaches altitude 10° 23:38:09 10° 340° (NNW) 1,919 ? -29.7°
Maximum altitude 23:40:42 16° 302° (WNW) 1,552 ? -29.7°
Enters shadow 23:40:59 16° 298° (WNW) 1,556 ? -29.7°
